Location: Northern Prairie Star Party
(53.2167°N, 112.5333°W)
Time: 22:41:19
(UTC-06:00)

Amateur Radio Satellites - All Passes

Search period start: 25 May 2016 22:11
Search period end: 26 May 2016 22:11
Location: Northern Prairie Star Party, 53.2167°N, 112.5333°W

Satellite Date Start Highest point End Downlink Frequencies (MHz)
Time Altitude Azimuth
HO-68 25 May 22:13:12 22:18:49 24° 271° (W) 22:24:29 435.675
Oscar 11 25 May 22:13:42 22:17:55 51° 260° (W) 22:22:09 145.826/435.025
Cosmos 2504 25 May 22:20:45 22:23:51 13° 324° (NW) 22:27:00 435.465 / 435.565
CUBEBUG 2 25 May 22:20:48 22:24:32 27° 266° (W) 22:28:13 437.445
CUTE 1.7 + AOD 2 25 May 22:21:59 22:23:20 11° 276° (W) 22:24:42 437.475
STRAND 1 25 May 22:23:03 22:27:29 30° 301° (WNW) 22:31:53 437.568
ZACube-1 25 May 22:23:59 22:28:04 45° 261° (W) 22:32:06 437.345
CUBEBUG 1 25 May 22:28:21 22:30:52 15° 54° (NE) 22:33:23 437.445
VELOX 1 25 May 22:29:39 22:32:16 16° 53° (NE) 22:34:54 145.980
DX 1 25 May 22:31:49 22:34:09 14° 52° (NE) 22:36:29 434.975-435.025
AIST 1 25 May 22:45:59 22:50:23 78° 281° (W) 22:54:50
HUMSAT D 25 May 22:50:04 22:54:09 84° 256° (WSW) 22:58:16 437.325/437.525
COMPASS 1 25 May 22:52:42 22:52:44 10° 276° (W) 22:52:47 437.405
PRISM 25 May 22:53:13 22:57:13 44° 293° (WNW) 23:01:12 437.425
UWE-3 25 May 22:54:43 22:57:44 19° 270° (W) 23:00:45 435.000/436.395/437.385
AAUSAT CUBESAT 2 25 May 22:56:09 22:57:16 11° 276° (W) 22:58:23 437.432
BEESAT 2 25 May 23:01:08 23:02:58 13° 248° (WSW) 23:04:48 435.950
DANDE 25 May 23:01:20 23:09:05 41° 61° (ENE) 23:16:46 436.750
AISAT 25 May 23:03:55 23:07:45 28° 61° (ENE) 23:11:35 437.250
FUNcube-1 25 May 23:04:22 23:07:37 21° 268° (W) 23:10:52 145.935
SPROUT 25 May 23:05:10 23:07:20 14° 53° (NE) 23:09:31 437.525
Cosmos 2499 25 May 23:07:50 23:14:45 48° 88° (E) 23:22:12 435.465 / 435.565
AIST 2 25 May 23:13:55 23:18:07 81° 226° (SW) 23:22:15 435.215
50 SAT 25 May 23:14:53 23:18:04 29° 65° (ENE) 23:21:18 437.505
UNISAT 6 25 May 23:15:35 23:19:14 26° 94° (E) 23:22:51 437.425
UKube-1 25 May 23:23:08 23:26:53 29° 62° (ENE) 23:30:38 .
TIGRISAT 25 May 23:23:47 23:27:33 29° 95° (E) 23:31:19 435.000
CUSAT 1 25 May 23:27:06 23:35:15 79° 75° (ENE) 23:42:24 437.405
ISS 25 May 23:32:06 23:34:27 18° 146° (SSE) 23:36:49 145.825
RS-15 25 May 23:32:52 23:44:22 49° 3° (N) 23:56:16 29.354- 29.394
ESTCUBE 1 25 May 23:33:00 23:37:27 62° 70° (ENE) 23:41:57 437.505/2401.250
DELFI C3 25 May 23:41:39 23:43:56 15° 272° (W) 23:46:13 145.870
GONETS M04 25 May 23:43:06 23:51:56 77° 283° (WNW) 00:00:45
NANOSAT C BR1 25 May 23:46:48 23:48:15 11° 85° (E) 23:49:40 145.865
ANTELSAT 25 May 23:56:34 00:00:49 60° 102° (ESE) 00:05:05 437.575/2403.000
CUBEBUG 1 26 May 00:02:03 00:06:30 82° 73° (ENE) 00:10:59 437.445
VELOX 1 26 May 00:03:37 00:08:06 84° 72° (ENE) 00:12:37 145.980
DX 1 26 May 00:05:16 00:09:40 78° 72° (ENE) 00:14:05 434.975-435.025
DUCHIFAT 1 26 May 00:24:52 00:28:18 24° 93° (E) 00:31:43 145.980
AIST 1 26 May 00:26:46 00:28:49 13° 303° (WNW) 00:30:52
HUMSAT D 26 May 00:29:17 00:30:29 11° 275° (W) 00:31:42 437.325/437.525
SPROUT 26 May 00:38:19 00:42:37 79° 75° (ENE) 00:46:56 437.525
AISAT 26 May 00:39:46 00:44:05 45° 261° (W) 00:48:25 437.250
DANDE 26 May 00:44:13 00:52:31 69° 263° (W) 01:00:33 436.750
50 SAT 26 May 00:48:36 00:51:49 29° 264° (W) 00:55:04 437.505
BUGSAT 1 26 May 00:51:32 00:54:45 22° 92° (E) 00:57:56 437.445
UNISAT 6 26 May 00:52:04 00:56:08 43° 293° (WNW) 01:00:13 437.425
AIST 2 26 May 00:53:47 00:55:56 14° 248° (WSW) 00:58:06 435.215
SWISSCUBE 26 May 00:57:19 01:00:12 16° 52° (NE) 01:03:06 437.505
UKube-1 26 May 00:58:41 01:02:48 42° 261° (W) 01:06:58 .
POPSAT HIP 1 26 May 01:00:18 01:04:27 55° 101° (E) 01:08:34 437.405
TIGRISAT 26 May 01:00:23 01:04:21 38° 294° (WNW) 01:08:20 435.000
QB50P1 26 May 01:00:53 01:05:03 57° 101° (E) 01:09:11 145.935-145.965
Cosmos 2499 26 May 01:00:57 01:07:59 46° 293° (WNW) 01:15:35 435.465 / 435.565
ITUPSAT 1 26 May 01:02:23 01:05:17 16° 52° (NE) 01:08:12 437.325
QB50P2 26 May 01:02:28 01:06:40 62° 102° (ESE) 01:10:50 145.880/145.840
POLYITAN 1 26 May 01:04:55 01:09:06 63° 102° (ESE) 01:13:16 437.675
ISS 26 May 01:07:15 01:10:26 51° 165° (SSE) 01:13:38 145.825
TISAT 1 26 May 01:09:55 01:14:03 54° 69° (ENE) 01:18:11 437.305
CUSAT 1 26 May 01:09:57 01:16:38 30° 278° (W) 01:22:40 437.405
ESTCUBE 1 26 May 01:11:19 01:14:41 20° 270° (W) 01:18:05 437.505/2401.250
JAS-2 26 May 01:19:30 01:25:57 28° 86° (E) 01:31:56 435.910
NANOSAT C BR1 26 May 01:20:28 01:24:41 83° 102° (ESE) 01:28:53 145.865
BEESAT 26 May 01:26:09 01:29:55 24° 57° (ENE) 01:33:41 436.000
ANTELSAT 26 May 01:34:00 01:37:13 21° 301° (WNW) 01:40:25 437.575/2403.000
CUBEBUG 1 26 May 01:40:47 01:43:24 15° 273° (W) 01:46:00 437.445
VELOX 1 26 May 01:42:38 01:45:11 15° 273° (W) 01:47:46 145.980
GONETS M04 26 May 01:43:33 01:50:26 25° 309° (NW) 01:57:19
DX 1 26 May 01:43:44 01:46:25 16° 271° (W) 01:49:07 434.975-435.025
RS-15 26 May 01:47:01 01:59:13 69° 35° (NE) 02:11:34 29.354- 29.394
YUBILEINY 26 May 01:59:14 02:05:43 22° 48° (NE) 02:12:10 435.215
DUCHIFAT 1 26 May 02:00:13 02:04:13 45° 292° (WNW) 02:08:12 145.980
SO-50 26 May 02:14:57 02:19:41 50° 126° (SE) 02:24:26 436.795
SPROUT 26 May 02:16:39 02:19:08 15° 272° (W) 02:21:39 437.525
Cosmos 2504 26 May 02:19:23 02:21:09 11° 32° (NNE) 02:22:56 435.465 / 435.565
BUGSAT 1 26 May 02:26:28 02:30:24 46° 292° (WNW) 02:34:15 437.445
DANDE 26 May 02:28:26 02:34:02 20° 284° (WNW) 02:39:35 436.750
SWISSCUBE 26 May 02:32:33 02:37:19 81° 73° (ENE) 02:42:07 437.505
POPSAT HIP 1 26 May 02:36:42 02:39:57 22° 300° (WNW) 02:43:10 437.405
QB50P1 26 May 02:37:19 02:40:32 21° 301° (WNW) 02:43:43 145.935-145.965
ITUPSAT 1 26 May 02:37:40 02:42:26 80° 72° (ENE) 02:47:14 437.325
QB50P2 26 May 02:39:00 02:42:06 20° 302° (WNW) 02:45:12 145.880/145.840
POLYITAN 1 26 May 02:41:29 02:44:33 20° 302° (WNW) 02:47:36 437.675
ISS 26 May 02:43:29 02:46:44 65° 185° (S) 02:49:58 145.825
TISAT 1 26 May 02:46:48 02:50:01 21° 268° (W) 02:53:15 437.305
Oscar 19 26 May 02:51:00 02:56:04 51° 100° (E) 03:01:05 437.125/150
KKS-1 26 May 02:52:40 02:56:04 22° 58° (ENE) 02:59:30 437.445
MOZHAYETS 4 26 May 02:54:49 02:57:53 18° 55° (NE) 03:00:58
NANOSAT C BR1 26 May 02:57:21 02:59:54 16° 304° (NW) 03:02:27 145.865
Gurwin Techsat 1B 26 May 02:58:45 03:03:25 30° 93° (E) 03:08:04 435.225
Cosmos 2499 26 May 02:59:53 03:03:43 14° 321° (NW) 03:07:41 435.465 / 435.565
BEESAT 26 May 03:02:38 03:07:20 64° 257° (WSW) 03:12:06 436.000
JAS-2 26 May 03:04:03 03:11:50 80° 289° (WNW) 03:18:54 435.910
Cosmos 2491 26 May 03:06:12 03:10:54 16° 68° (ENE) 03:15:36 435.465 / 435.565
ITAMSAT 1 26 May 03:28:53 03:33:00 23° 91° (E) 03:37:07 435.822/435.867
STARS 26 May 03:33:04 03:36:46 27° 61° (ENE) 03:40:28 437.465
SO-50 26 May 03:55:38 04:00:20 43° 327° (NNW) 04:05:00 436.795
YUBILEINY 26 May 03:55:42 04:04:27 69° 74° (ENE) 04:13:12 435.215
RS-15 26 May 03:59:55 04:11:43 57° 242° (WSW) 04:23:33 29.354- 29.394
Cosmos 2504 26 May 04:10:30 04:17:46 33° 60° (ENE) 04:25:23 435.465 / 435.565
SWISSCUBE 26 May 04:12:39 04:15:45 17° 272° (W) 04:18:50 437.505
CUBESAT XI-V 26 May 04:15:25 04:18:16 16° 53° (NE) 04:21:06 437.345
ITUPSAT 1 26 May 04:17:47 04:20:53 17° 272° (W) 04:24:01 437.325
ISS 26 May 04:19:58 04:22:55 31° 205° (SSW) 04:25:51 145.825
KKS-1 26 May 04:27:50 04:32:17 63° 257° (WSW) 04:36:44 437.445
MOZHAYETS 4 26 May 04:29:56 04:34:31 83° 257° (WSW) 04:39:07
Oscar 19 26 May 04:30:41 04:35:13 31° 300° (WNW) 04:39:43 437.125/150
AO-7 26 May 04:35:30 04:43:05 36° 95° (E) 04:50:36 29.400- 29.500
Gurwin Techsat 1B 26 May 04:38:28 04:43:39 53° 293° (WNW) 04:48:49 435.225
BEESAT 26 May 04:45:41 04:46:07 10° 277° (W) 04:46:34 436.000
JAS-2 26 May 04:49:43 04:55:47 26° 312° (NW) 05:01:33 435.910
Cosmos 2491 26 May 04:57:13 05:05:50 60° 91° (E) 05:14:27 435.465 / 435.565
ITAMSAT 1 26 May 05:07:46 05:12:58 67° 291° (WNW) 05:18:08 435.822/435.867
STARS 26 May 05:08:41 05:12:57 47° 261° (W) 05:17:14 437.465
SO-50 26 May 05:38:04 05:41:56 23° 350° (N) 05:45:44 436.795
HORYU 2 26 May 05:39:38 05:43:22 26° 94° (E) 05:47:04 437.375
CUBESAT XI-V 26 May 05:50:17 05:54:58 82° 74° (ENE) 05:59:42 437.345
YUBILEINY 26 May 05:53:05 06:00:44 36° 278° (W) 06:08:23 435.215
Cosmos 2504 26 May 06:03:44 06:11:57 77° 264° (W) 06:20:41 435.465 / 435.565
MOZHAYETS 4 26 May 06:10:23 06:12:27 13° 275° (W) 06:14:32
RS-15 26 May 06:14:32 06:21:19 17° 267° (W) 06:28:09 29.354- 29.394
Gurwin Techsat 1B 26 May 06:20:11 06:22:32 13° 314° (NW) 06:24:54 435.225
STRAND 1 26 May 06:27:37 06:31:53 28° 58° (ENE) 06:36:12 437.568
AO-7 26 May 06:28:10 06:36:29 71° 297° (WNW) 06:44:48 29.400- 29.500
CUTE-I 26 May 06:31:12 06:34:13 15° 85° (E) 06:37:12 437.470
JAS-2 26 May 06:37:21 06:38:15 10° 336° (NNW) 06:39:08 435.910
ITAMSAT 1 26 May 06:48:34 06:51:34 16° 311° (NW) 06:54:34 435.822/435.867
BRITE-PL 26 May 06:51:34 06:55:55 25° 89° (E) 06:59:59 437.365/2234.400
Cosmos 2491 26 May 06:54:49 07:03:06 43° 296° (WNW) 07:11:26 435.465 / 435.565
Cosmos 2499 26 May 06:59:16 07:00:30 10° 30° (NNE) 07:01:45 435.465 / 435.565
NOAA 18 26 May 07:07:47 07:12:40 32° 95° (E) 07:17:32 137.9125
HORYU 2 26 May 07:15:53 07:20:09 47° 293° (WNW) 07:24:23 437.375
SO-50 26 May 07:19:54 07:23:53 24° 15° (NNE) 07:27:46 436.795
Cubesat XI-IV 26 May 07:23:05 07:28:01 36° 96° (E) 07:32:56 437.490
NOAA 15 26 May 07:24:19 07:29:30 49° 99° (E) 07:34:38 137.62
GOMX 1 26 May 07:25:10 07:29:01 23° 89° (E) 07:32:39 467.674
CUBESAT XI-V 26 May 07:30:04 07:32:59 16° 273° (W) 07:35:55 437.345
AO-85 26 May 07:40:23 07:45:36 48° 124° (SE) 07:50:41 145.980
LilacSat-2 26 May 07:40:25 07:44:05 45° 99° (E) 07:47:44 437.200
HO-68 26 May 07:46:42 07:48:57 12° 78° (ENE) 07:51:13 435.675
GONETS M04 26 May 07:49:06 07:55:56 24° 51° (NE) 08:02:41
Cosmos 2504 26 May 07:58:23 08:04:09 21° 285° (WNW) 08:10:07 435.465 / 435.565
STRAND 1 26 May 08:05:45 08:10:47 58° 258° (WSW) 08:15:52 437.568
CUTE-I 26 May 08:09:45 08:15:08 79° 104° (ESE) 08:20:31 437.470
PRISM 26 May 08:13:13 08:17:08 41° 66° (ENE) 08:21:06 437.425
AO-7 26 May 08:21:34 08:28:04 26° 321° (NW) 08:34:33 29.400- 29.500
DOVE 4 26 May 08:22:07 08:26:17 34° 95° (E) 08:30:13 437.250
CUTE 1.7 + AOD 2 26 May 08:22:53 08:24:40 12° 85° (E) 08:26:27 437.475
BRITE-PL 26 May 08:29:34 08:34:52 61° 290° (WNW) 08:39:44 437.365/2234.400
M-CUBED/EXP-1 PRIME 26 May 08:45:40 08:47:16 13° 96° (E) 08:48:52 437.505
AIST 1 26 May 08:46:33 08:50:52 52° 74° (ENE) 08:55:06
NOAA 18 26 May 08:48:17 08:53:35 52° 295° (WNW) 08:58:53 137.9125
Cosmos 2499 26 May 08:49:50 08:57:06 31° 58° (ENE) 09:04:39 435.465 / 435.565
COMPASS 1 26 May 08:50:26 08:52:17 13° 86° (E) 08:54:08 437.405
AAUSAT CUBESAT 2 26 May 08:54:59 08:56:21 11° 85° (E) 08:57:42 437.432
TIGRISAT 26 May 08:56:14 08:56:36 10° 50° (NE) 08:56:59 435.000
Cosmos 2491 26 May 08:58:35 09:03:02 14° 325° (NW) 09:07:30 435.465 / 435.565
SO-50 26 May 09:00:33 09:05:18 56° 38° (NE) 09:09:53 436.795
GOMX 1 26 May 09:02:43 09:07:33 57° 291° (WNW) 09:12:02 467.674
Cubesat XI-IV 26 May 09:03:09 09:08:13 45° 296° (WNW) 09:13:18 437.490
NOAA 15 26 May 09:04:24 09:09:09 34° 300° (WNW) 09:13:51 137.62
CINEMA 3 26 May 09:04:35 09:08:17 29° 94° (E) 09:11:55 145.822/145.860
LilacSat-2 26 May 09:15:16 09:18:10 21° 298° (WNW) 09:21:04 437.200
AO-85 26 May 09:20:58 09:26:13 49° 325° (NW) 09:31:15 145.980
ANTELSAT 26 May 09:26:25 09:29:22 18° 57° (ENE) 09:32:19 437.575/2403.000
CANX-2 26 May 09:29:20 09:33:33 54° 100° (E) 09:37:46 2200.000
HO-68 26 May 09:31:27 09:38:27 53° 100° (E) 09:45:26 435.675
O/OREOS (USA 219) 26 May 09:32:50 09:33:39 10° 96° (E) 09:34:29 437.305
SEEDS 26 May 09:35:18 09:39:21 41° 98° (E) 09:43:23 437.485
GONETS M04 26 May 09:45:40 09:54:27 77° 77° (ENE) 10:03:08
PRISM 26 May 09:49:05 09:52:37 26° 266° (W) 09:56:10 437.425
CUTE-I 26 May 09:50:34 09:54:40 23° 306° (NW) 09:58:47 437.470
Oscar 11 26 May 09:55:06 09:58:18 20° 90° (E) 10:01:28 145.826/435.025
CUTE 1.7 + AOD 2 26 May 09:56:54 10:01:12 86° 101° (E) 10:05:30 437.475
JAS-2 26 May 09:58:59 10:01:24 12° 27° (NNE) 10:03:49 435.910
DOVE 4 26 May 09:59:53 10:04:00 34° 296° (WNW) 10:07:55 437.250
CUBEBUG 2 26 May 10:04:26 10:08:21 38° 97° (E) 10:12:15 437.445
PCSat 26 May 10:04:55 10:08:19 17° 106° (ESE) 10:11:43 145.827
ZACube-1 26 May 10:06:10 10:09:24 21° 92° (E) 10:12:39 437.345
BRITE-PL 26 May 10:09:30 10:12:16 14° 312° (NW) 10:14:56 437.365/2234.400
AUBIESAT-1 26 May 10:13:34 10:16:58 82° 293° (WNW) 10:20:15 437.475
AO-7 26 May 10:14:39 10:18:04 13° 347° (NNW) 10:21:31 29.400- 29.500
M-CUBED/EXP-1 PRIME 26 May 10:18:59 10:22:18 58° 295° (WNW) 10:25:30 437.505
UNISAT 6 26 May 10:20:10 10:24:21 49° 69° (ENE) 10:28:30 437.425
COMPASS 1 26 May 10:24:15 10:28:31 89° 122° (ESE) 10:32:44 437.405
AIST 1 26 May 10:24:49 10:28:08 21° 274° (W) 10:31:25
POPSAT HIP 1 26 May 10:25:01 10:27:30 15° 55° (NE) 10:29:58 437.405
QB50P1 26 May 10:25:30 10:28:02 16° 55° (NE) 10:30:34 145.935-145.965
QB50P2 26 May 10:27:03 10:29:45 17° 56° (NE) 10:32:27 145.880/145.840
TIGRISAT 26 May 10:28:12 10:32:26 55° 70° (ENE) 10:36:37 435.000
AAUSAT CUBESAT 2 26 May 10:28:19 10:32:33 82° 104° (ESE) 10:36:45 437.432
POLYITAN 1 26 May 10:29:28 10:32:11 17° 56° (ENE) 10:34:55 437.675
HUMSAT D 26 May 10:29:34 10:30:26 11° 85° (E) 10:31:19 437.325/437.525
NOAA 18 26 May 10:30:38 10:33:08 13° 316° (NW) 10:35:40 137.9125
UWE-3 26 May 10:36:11 10:40:17 56° 101° (E) 10:44:24 435.000/436.395/437.385
SO-50 26 May 10:41:23 10:45:37 33° 239° (WSW) 10:49:43 436.795
CINEMA 3 26 May 10:41:39 10:45:33 37° 294° (WNW) 10:49:22 145.822/145.860
GOMX 1 26 May 10:42:39 10:44:35 12° 312° (NW) 10:46:28 467.674
Cosmos 2499 26 May 10:42:47 10:51:14 84° 261° (W) 11:00:05 435.465 / 435.565
NANOSAT C BR1 26 May 10:44:02 10:47:12 21° 59° (ENE) 10:50:21 145.865
FUNcube-1 26 May 10:44:38 10:48:39 45° 99° (E) 10:52:41 145.935
Cubesat XI-IV 26 May 10:45:28 10:47:05 11° 317° (NW) 10:48:42 437.490
CUSAT 1 26 May 10:57:47 11:01:13 14° 70° (ENE) 11:04:52 437.405
ANTELSAT 26 May 11:01:19 11:05:40 73° 258° (WSW) 11:09:58 437.575/2403.000
AO-85 26 May 11:03:30 11:07:49 24° 347° (NNW) 11:11:54 145.980
CANX-2 26 May 11:05:46 11:09:09 23° 299° (WNW) 11:12:31 2200.000
O/OREOS (USA 219) 26 May 11:07:39 11:12:10 67° 116° (ESE) 11:16:42 437.305
DELFI C3 26 May 11:10:52 11:14:50 49° 100° (E) 11:18:45 145.870
SEEDS 26 May 11:11:19 11:14:56 28° 297° (WNW) 11:18:34 437.485
HO-68 26 May 11:19:25 11:26:09 45° 302° (WNW) 11:32:51 435.675
DUCHIFAT 1 26 May 11:22:21 11:26:18 40° 67° (ENE) 11:30:15 145.980
Oscar 11 26 May 11:30:32 11:34:49 60° 289° (WNW) 11:39:06 145.826/435.025
CUTE 1.7 + AOD 2 26 May 11:33:54 11:36:29 16° 304° (NW) 11:39:05 437.475
JAS-2 26 May 11:37:41 11:44:03 30° 51° (NE) 11:50:36 435.910
CUBEBUG 2 26 May 11:41:20 11:44:54 28° 297° (WNW) 11:48:29 437.445
ZACube-1 26 May 11:41:57 11:46:00 51° 290° (WNW) 11:50:04 437.345
GONETS M04 26 May 11:43:13 11:50:30 31° 280° (W) 11:57:46
PCSat 26 May 11:45:29 11:50:54 79° 127° (SE) 11:56:23 145.827
BUGSAT 1 26 May 11:46:44 11:50:36 36° 66° (ENE) 11:54:26 437.445
CUBEBUG 1 26 May 11:47:28 11:47:55 10° 83° (E) 11:48:22 437.445
AUBIESAT-1 26 May 11:49:55 11:50:54 11° 313° (NW) 11:51:53 437.475
VELOX 1 26 May 11:50:06 11:51:02 11° 84° (E) 11:51:58 145.980
UNISAT 6 26 May 11:57:50 12:01:20 23° 267° (W) 12:04:50 437.425
POPSAT HIP 1 26 May 11:58:28 12:02:43 89° 256° (WSW) 12:06:59 437.405
QB50P1 26 May 11:59:00 12:03:16 87° 257° (WSW) 12:07:32 145.935-145.965
BEESAT 3 26 May 11:59:36 12:00:48 11° 111° (ESE) 12:02:01 437.485
QB50P2 26 May 12:00:49 12:05:03 80° 255° (WSW) 12:09:20 145.880/145.840
COMPASS 1 26 May 12:01:05 12:03:29 15° 304° (NW) 12:05:55 437.405
HUMSAT D 26 May 12:02:39 12:06:48 78° 104° (ESE) 12:10:59 437.325/437.525
POLYITAN 1 26 May 12:03:15 12:07:31 79° 258° (WSW) 12:11:46 437.675
AO-7 26 May 12:03:47 12:07:29 14° 15° (NNE) 12:11:11 29.400- 29.500
AAUSAT CUBESAT 2 26 May 12:04:55 12:07:31 16° 303° (WNW) 12:10:07 437.432
TIGRISAT 26 May 12:06:09 12:09:27 21° 268° (W) 12:12:45 435.000
50 SAT 26 May 12:12:05 12:14:31 16° 90° (E) 12:16:56 437.505
UWE-3 26 May 12:13:19 12:16:28 21° 300° (WNW) 12:19:38 435.000/436.395/437.385
DANDE 26 May 12:18:12 12:22:50 24° 78° (ENE) 12:28:20 436.750
NANOSAT C BR1 26 May 12:18:24 12:22:35 60° 258° (WSW) 12:26:47 145.865
FUNcube-1 26 May 12:21:19 12:24:44 25° 298° (WNW) 12:28:11 145.935
AISAT 26 May 12:23:59 12:27:30 22° 92° (E) 12:30:58 437.250
CUSAT 1 26 May 12:35:03 12:41:30 56° 93° (E) 12:49:09 437.405
Oscar 19 26 May 12:35:59 12:40:18 27° 58° (ENE) 12:44:37 437.125/150
Cosmos 2499 26 May 12:36:56 12:43:17 24° 284° (WNW) 12:49:50 435.465 / 435.565
UKube-1 26 May 12:39:49 12:43:09 21° 92° (E) 12:46:27 .
ANTELSAT 26 May 12:42:34 12:43:11 10° 276° (W) 12:43:47 437.575/2403.000
AO-85 26 May 12:45:40 12:49:49 24° 12° (NNE) 12:53:44 145.980
DELFI C3 26 May 12:46:17 12:49:27 22° 299° (WNW) 12:52:36 145.870
O/OREOS (USA 219) 26 May 12:48:15 12:52:02 25° 317° (NW) 12:55:47 437.305
Gurwin Techsat 1B 26 May 12:48:26 12:52:01 19° 51° (NE) 12:55:35 435.225
ESTCUBE 1 26 May 12:55:51 13:00:22 57° 101° (E) 13:04:51 437.505/2401.250
BEESAT 2 26 May 12:57:20 13:00:30 23° 118° (ESE) 13:03:41 435.950
DUCHIFAT 1 26 May 12:58:30 13:02:08 27° 266° (W) 13:05:46 145.980
Cosmos 2491 26 May 13:03:31 13:08:00 15° 35° (NE) 13:12:27 435.465 / 435.565
HO-68 26 May 13:08:21 13:12:13 16° 325° (NW) 13:16:05 435.675
Oscar 11 26 May 13:08:50 13:10:07 11° 309° (NW) 13:11:24 145.826/435.025
ITAMSAT 1 26 May 13:16:29 13:19:15 15° 48° (NE) 13:22:02 435.822/435.867
CUBEBUG 1 26 May 13:20:39 13:25:04 70° 103° (ESE) 13:29:26 437.445
JAS-2 26 May 13:20:41 13:28:13 90° 277° (W) 13:36:11 435.910
BUGSAT 1 26 May 13:22:19 13:26:03 30° 265° (W) 13:29:45 437.445
DX 1 26 May 13:23:20 13:27:42 60° 102° (ESE) 13:32:00 434.975-435.025
VELOX 1 26 May 13:23:53 13:28:22 72° 104° (ESE) 13:32:46 145.980
PCSat 26 May 13:29:59 13:34:52 32° 329° (NNW) 13:39:46 145.827
BEESAT 3 26 May 13:33:51 13:37:47 70° 130° (SE) 13:41:45 437.485
POPSAT HIP 1 26 May 13:37:19 13:39:10 13° 274° (W) 13:41:01 437.405
QB50P1 26 May 13:37:59 13:39:43 12° 274° (W) 13:41:28 145.935-145.965
HUMSAT D 26 May 13:39:21 13:41:57 16° 303° (WNW) 13:44:34 437.325/437.525
QB50P2 26 May 13:40:16 13:41:36 11° 275° (W) 13:42:56 145.880/145.840
POLYITAN 1 26 May 13:42:53 13:44:04 11° 275° (W) 13:45:15 437.675
50 SAT 26 May 13:44:56 13:48:35 55° 289° (WNW) 13:52:14 437.505
AO-7 26 May 13:50:55 13:57:38 29° 41° (NE) 14:04:21 29.400- 29.500
SPROUT 26 May 13:53:57 13:58:13 64° 102° (ESE) 14:02:26 437.525
DANDE 26 May 13:58:45 14:04:36 84° 283° (WNW) 14:12:13 436.750
AISAT 26 May 13:59:57 14:04:18 54° 291° (WNW) 14:08:36 437.250
Oscar 19 26 May 14:14:08 14:19:18 63° 258° (WSW) 14:24:29 437.125/150
UKube-1 26 May 14:15:17 14:19:32 56° 291° (WNW) 14:23:46 .
CUSAT 1 26 May 14:17:29 14:23:57 43° 298° (WNW) 14:31:28 437.405
TISAT 1 26 May 14:23:13 14:27:10 40° 98° (E) 14:31:07 437.305
Gurwin Techsat 1B 26 May 14:25:55 14:31:15 82° 71° (ENE) 14:36:36 435.225
AO-85 26 May 14:26:31 14:31:24 50° 36° (NE) 14:35:50 145.980
SWISSCUBE 26 May 14:27:57 14:30:18 13° 85° (E) 14:32:39 437.505
ESTCUBE 1 26 May 14:33:13 14:36:53 24° 301° (WNW) 14:40:31 437.505/2401.250
ITUPSAT 1 26 May 14:33:21 14:35:43 13° 86° (E) 14:38:05 437.325
BEESAT 2 26 May 14:34:05 14:38:03 62° 319° (NW) 14:42:02 435.950
ITAMSAT 1 26 May 14:52:42 14:57:49 63° 69° (ENE) 15:02:58 435.822/435.867
AIST 2 26 May 14:55:30 14:58:58 26° 119° (ESE) 15:02:26 435.215
BEESAT 26 May 14:56:53 15:00:34 21° 91° (E) 15:04:14 436.000
CUBEBUG 1 26 May 14:57:46 15:00:55 20° 303° (WNW) 15:04:04 437.445
Cosmos 2491 26 May 14:59:36 15:07:55 43° 64° (ENE) 15:16:07 435.465 / 435.565
DX 1 26 May 15:00:11 15:03:33 22° 302° (WNW) 15:06:53 434.975-435.025
VELOX 1 26 May 15:01:12 15:04:23 20° 303° (WNW) 15:07:33 145.980
JAS-2 26 May 15:08:11 15:14:14 26° 275° (W) 15:20:34 435.910
HORYU 2 26 May 15:11:32 15:11:58 10° 48° (NE) 15:12:23 437.375
BEESAT 3 26 May 15:12:23 15:15:50 28° 332° (NNW) 15:19:18 437.485
YUBILEINY 26 May 15:12:53 15:17:39 16° 68° (ENE) 15:22:25 435.215
PCSat 26 May 15:16:02 15:19:54 19° 355° (N) 15:23:47 145.827
SPROUT 26 May 15:30:41 15:33:47 20° 302° (WNW) 15:36:53 437.525
AISAT 26 May 15:38:52 15:39:51 11° 312° (NW) 15:40:51 437.250
AO-7 26 May 15:41:04 15:49:21 79° 65° (ENE) 15:57:43 29.400- 29.500
DANDE 26 May 15:43:45 15:48:52 24° 311° (NW) 15:54:54 436.750
UKube-1 26 May 15:53:42 15:54:42 11° 311° (NW) 15:55:42 .
Oscar 19 26 May 15:58:17 15:59:42 11° 278° (W) 16:01:08 437.125/150
TISAT 1 26 May 15:59:08 16:02:44 28° 297° (WNW) 16:06:19 437.305
SWISSCUBE 26 May 16:04:03 16:08:54 81° 106° (ESE) 16:13:42 437.505
CUSAT 1 26 May 16:04:22 16:08:31 15° 323° (NW) 16:12:54 437.405
AO-85 26 May 16:07:21 16:11:49 38° 239° (WSW) 16:15:53 145.980
Gurwin Techsat 1B 26 May 16:08:07 16:11:52 19° 272° (W) 16:15:38 435.225
ITUPSAT 1 26 May 16:09:31 16:14:22 81° 105° (ESE) 16:19:11 437.325
KKS-1 26 May 16:13:27 16:16:17 16° 89° (E) 16:19:07 437.445
BEESAT 2 26 May 16:13:33 16:16:37 21° 340° (NNW) 16:19:41 435.950
MOZHAYETS 4 26 May 16:19:38 16:22:30 16° 87° (E) 16:25:21
CUTE-I 26 May 16:23:19 16:24:41 11° 42° (NE) 16:26:02 437.470
RS-15 26 May 16:25:47 16:31:22 15° 91° (E) 16:37:04 29.354- 29.394
BRITE-PL 26 May 16:32:31 16:35:17 14° 47° (NE) 16:38:02 437.365/2234.400
AIST 2 26 May 16:33:08 16:37:13 57° 319° (NW) 16:41:20 435.215
ITAMSAT 1 26 May 16:33:33 16:37:43 24° 269° (W) 16:41:56 435.822/435.867
BEESAT 26 May 16:34:02 16:38:47 64° 291° (WNW) 16:43:31 436.000
HORYU 2 26 May 16:43:18 16:47:34 51° 68° (ENE) 16:51:53 437.375
STARS 26 May 16:52:13 16:55:30 20° 91° (E) 16:58:47 437.465
BEESAT 3 26 May 16:52:14 16:54:43 16° 355° (N) 16:57:11 437.485
Cosmos 2491 26 May 16:56:37 17:05:09 59° 269° (W) 17:13:38 435.465 / 435.565
Cosmos 2504 26 May 17:00:12 17:04:49 18° 72° (ENE) 17:09:35 435.465 / 435.565
PCSat 26 May 17:00:46 17:05:10 24° 21° (NNE) 17:09:33 145.827
NOAA 18 26 May 17:01:31 17:05:44 23° 53° (NE) 17:09:58 137.9125
YUBILEINY 26 May 17:04:07 17:12:36 62° 92° (E) 17:21:09 435.215
GOMX 1 26 May 17:04:08 17:06:15 12° 48° (NE) 17:08:21 467.674
NOAA 15 26 May 17:12:05 17:16:35 29° 58° (ENE) 17:21:06 137.62
Cubesat XI-IV 26 May 17:13:09 17:17:10 22° 54° (NE) 17:21:12 437.490
AO-7 26 May 17:35:50 17:42:59 31° 267° (W) 17:50:13 29.400- 29.500
CUBESAT XI-V 26 May 17:41:53 17:44:26 14° 85° (E) 17:46:59 437.345
SWISSCUBE 26 May 17:42:45 17:46:10 20° 305° (NW) 17:49:35 437.505
ITUPSAT 1 26 May 17:48:15 17:51:40 20° 305° (NW) 17:55:06 437.325
KKS-1 26 May 17:48:57 17:53:24 75° 288° (WNW) 17:57:49 437.445
BEESAT 2 26 May 17:53:17 17:55:48 16° 4° (N) 17:58:19 435.950
O/OREOS (USA 219) 26 May 17:53:43 17:56:28 16° 34° (NNE) 17:59:13 437.305
MOZHAYETS 4 26 May 17:55:38 18:00:17 82° 286° (WNW) 18:04:55
DOVE 4 26 May 17:57:48 18:00:46 16° 53° (NE) 18:03:38 437.250
CUTE-I 26 May 17:58:29 18:03:29 43° 64° (ENE) 18:08:31 437.470
M-CUBED/EXP-1 PRIME 26 May 18:05:19 18:06:26 11° 47° (NE) 18:07:32 437.505
BRITE-PL 26 May 18:07:08 18:12:38 53° 68° (ENE) 18:18:09 437.365/2234.400
AIST 2 26 May 18:13:19 18:16:30 21° 342° (NNW) 18:19:42 435.215
BEESAT 26 May 18:13:25 18:15:43 14° 311° (NW) 18:18:02 436.000
HORYU 2 26 May 18:20:51 18:24:25 24° 267° (W) 18:28:01 437.375
HO-68 26 May 18:21:22 18:26:38 23° 44° (NE) 18:31:54 435.675
STARS 26 May 18:27:56 18:32:15 58° 291° (WNW) 18:36:31 437.465
LilacSat-2 26 May 18:28:07 18:31:50 56° 72° (ENE) 18:35:35 437.200
RS-15 26 May 18:29:45 18:40:41 55° 116° (ESE) 18:52:12 29.354- 29.394
BEESAT 3 26 May 18:30:45 18:33:45 20° 19° (NNE) 18:36:44 437.485
GOMX 1 26 May 18:37:59 18:43:16 50° 68° (ENE) 18:48:24 467.674
CINEMA 3 26 May 18:38:23 18:39:49 11° 51° (NE) 18:41:15 145.822/145.860
NOAA 18 26 May 18:40:24 18:45:52 80° 253° (WSW) 18:51:23 137.9125
PCSat 26 May 18:44:13 18:49:38 60° 44° (NE) 18:55:00 145.827
Cosmos 2504 26 May 18:49:31 18:56:46 75° 96° (E) 19:04:30 435.465 / 435.565
NOAA 15 26 May 18:50:48 18:56:04 60° 258° (WSW) 19:01:22 137.62
Cubesat XI-IV 26 May 18:51:23 18:56:42 81° 255° (WSW) 19:02:05 437.490
CANX-2 26 May 18:54:40 18:56:51 14° 54° (NE) 18:59:03 2200.000
Cosmos 2491 26 May 18:55:33 19:00:03 15° 293° (WNW) 19:04:31 435.465 / 435.565
SEEDS 26 May 19:00:45 19:01:58 11° 52° (NE) 19:03:11 437.485
YUBILEINY 26 May 19:01:50 19:09:55 41° 297° (WNW) 19:18:04 435.215
CUBESAT XI-V 26 May 19:17:47 19:22:33 87° 106° (ESE) 19:27:16 437.345
CUTE 1.7 + AOD 2 26 May 19:21:01 19:24:06 20° 59° (ENE) 19:27:13 437.475
KKS-1 26 May 19:26:59 19:29:16 14° 308° (NW) 19:31:32 437.445
AUBIESAT-1 26 May 19:30:51 19:34:41 45° 63° (ENE) 19:38:17 437.475
BEESAT 2 26 May 19:31:22 19:34:51 27° 28° (NNE) 19:38:19 435.950
O/OREOS (USA 219) 26 May 19:32:21 19:36:51 61° 56° (ENE) 19:41:17 437.305
DOVE 4 26 May 19:32:33 19:37:44 72° 72° (ENE) 19:42:42 437.250
MOZHAYETS 4 26 May 19:34:04 19:36:47 16° 306° (NW) 19:39:30
CUBEBUG 2 26 May 19:34:56 19:36:38 12° 53° (NE) 19:38:19 437.445
M-CUBED/EXP-1 PRIME 26 May 19:36:22 19:40:24 61° 65° (ENE) 19:44:09 437.505
CUTE-I 26 May 19:38:45 19:43:38 37° 264° (W) 19:48:35 437.470
BRITE-PL 26 May 19:46:12 19:51:19 34° 267° (W) 19:56:27 437.365/2234.400
COMPASS 1 26 May 19:46:43 19:49:44 20° 59° (ENE) 19:52:47 437.405
AAUSAT CUBESAT 2 26 May 19:50:33 19:53:23 18° 58° (ENE) 19:56:15 437.432
AIST 2 26 May 19:53:35 19:56:22 17° 6° (N) 19:59:09 435.215
LilacSat-2 26 May 20:04:00 20:06:30 17° 270° (W) 20:09:01 437.200
UWE-3 26 May 20:04:47 20:07:19 16° 56° (ENE) 20:09:50 435.000/436.395/437.385
HO-68 26 May 20:06:12 20:13:18 72° 66° (ENE) 20:20:27 435.675
STARS 26 May 20:06:26 20:07:45 11° 311° (NW) 20:09:03 437.465
BEESAT 3 26 May 20:08:16 20:12:12 58° 41° (NE) 20:16:06 437.485
STRAND 1 26 May 20:09:57 20:14:30 31° 94° (E) 20:19:02 437.568
CINEMA 3 26 May 20:11:33 20:16:09 58° 71° (ENE) 20:20:35 145.822/145.860
FUNcube-1 26 May 20:12:42 20:14:33 13° 54° (NE) 20:16:24 145.935
GOMX 1 26 May 20:16:36 20:21:31 33° 266° (W) 20:26:21 467.674
NOAA 18 26 May 20:24:16 20:27:26 15° 274° (W) 20:30:37 137.9125
CANX-2 26 May 20:27:51 20:32:04 83° 74° (ENE) 20:36:19 2200.000
PCSat 26 May 20:27:59 20:32:48 33° 246° (WSW) 20:37:35 145.827
DELFI C3 26 May 20:31:14 20:32:21 11° 53° (NE) 20:33:27 145.870
SEEDS 26 May 20:32:44 20:36:52 63° 71° (ENE) 20:41:03 437.485
Cubesat XI-IV 26 May 20:34:38 20:37:40 15° 275° (W) 20:40:43 437.490
NOAA 15 26 May 20:35:41 20:36:59 11° 278° (W) 20:38:18 137.62
RS-15 26 May 20:41:22 20:52:59 70° 325° (NW) 21:05:14 29.354- 29.394
Cosmos 2504 26 May 20:44:41 20:51:02 30° 302° (WNW) 20:57:46 435.465 / 435.565
CUTE 1.7 + AOD 2 26 May 20:55:25 20:59:35 62° 258° (WSW) 21:03:48 437.475
Oscar 11 26 May 20:55:31 20:59:21 32° 64° (ENE) 21:03:12 145.826/435.025
CUBESAT XI-V 26 May 20:56:11 20:59:21 18° 305° (NW) 21:02:30 437.345
GONETS M04 26 May 21:01:51 21:07:24 19° 71° (ENE) 21:12:56
DANDE 26 May 21:05:32 21:09:45 14° 35° (NE) 21:13:59 436.750
YUBILEINY 26 May 21:05:50 21:09:54 14° 326° (NW) 21:13:59 435.215
AUBIESAT-1 26 May 21:06:08 21:09:22 23° 259° (W) 21:12:26 437.475
ZACube-1 26 May 21:07:42 21:11:33 36° 66° (ENE) 21:15:23 437.345
CUBEBUG 2 26 May 21:08:14 21:12:33 70° 72° (ENE) 21:16:47 437.445
BEESAT 2 26 May 21:09:04 21:13:06 74° 228° (SW) 21:17:04 435.950
DOVE 4 26 May 21:12:01 21:15:53 21° 271° (W) 21:19:40 437.250
M-CUBED/EXP-1 PRIME 26 May 21:12:27 21:15:16 18° 261° (W) 21:17:57 437.505
O/OREOS (USA 219) 26 May 21:12:27 21:15:52 21° 257° (WSW) 21:19:14 437.305
COMPASS 1 26 May 21:20:49 21:24:56 61° 258° (WSW) 21:29:06 437.405
CUSAT 1 26 May 21:21:13 21:27:13 22° 47° (NE) 21:32:50 437.405
AIST 1 26 May 21:22:59 21:26:24 22° 86° (E) 21:29:50
PRISM 26 May 21:23:51 21:27:30 28° 95° (E) 21:31:07 437.425
AAUSAT CUBESAT 2 26 May 21:24:20 21:28:27 69° 258° (WSW) 21:32:37 437.432
HUMSAT D 26 May 21:25:53 21:28:38 18° 58° (ENE) 21:31:24 437.325/437.525
AIST 2 26 May 21:32:18 21:36:02 31° 29° (NNE) 21:39:45 435.215
Cosmos 2499 26 May 21:38:25 21:42:33 16° 70° (ENE) 21:46:51 435.465 / 435.565
UWE-3 26 May 21:38:59 21:43:17 85° 256° (WSW) 21:47:30 435.000/436.395/437.385
FUNcube-1 26 May 21:45:56 21:50:09 76° 72° (ENE) 21:54:19 145.935
BEESAT 3 26 May 21:46:24 21:49:38 24° 241° (WSW) 21:52:50 437.485
STRAND 1 26 May 21:48:57 21:53:55 50° 294° (WNW) 21:58:52 437.568
CINEMA 3 26 May 21:49:58 21:53:37 22° 269° (W) 21:57:10 145.822/145.860
HO-68 26 May 21:55:29 22:01:39 31° 268° (W) 22:07:51 435.675
DELFI C3 26 May 22:02:31 22:06:28 67° 72° (ENE) 22:10:28 145.870
CANX-2 26 May 22:06:21 22:08:32 14° 274° (W) 22:10:45 2200.000
